Зализничное

Ukraine / Dnipropetrovsk Region     47˚52′58″N   33˚28′58″E
temp.,
°C
wind,
m/s
gust,
m/s
humid.,
%
clouds,
%
prec.,
mm/h
press.,
hPa
HPBL,
m
1 december, tue
tue123:00+4˚ne3682100 0.0 1023247
02:00+4˚ne4684100 0.0 1023300
05:00+4˚ene4786100 0.0 1023424
08:00+4˚e5875100 0.0 1023484
11:00+4˚ene5773100 0.0 1023558
14:00+4˚e5771100 0.0 1023667
17:00+3˚ene5874100 0.0 1023663
20:00+2˚ene5878100 0.0 1024626
2 december, wed
wed223:00+2˚ene5890100 0.1 1024498
02:00+2˚ene4791100 0.2 1024452
05:00+3˚e4882100 0.1 1024521
08:00+2˚e5878100 0.1 1025533
11:00+3˚e5881100 0.0 1025517
14:00+3˚e4782100 0.1 1024519
17:00+2˚e5893100 0.3 1024400
20:00+3˚e4794100 0.8 1025373
3 december, thu
thu323:00+3˚e4789100 0.3 1024325
02:00+3˚e3684100 0.4 1025332
05:00+3˚e2489100 0.1 1024173
08:00+3˚ene239486 0.1 102577
11:00+6˚ese238194 0.0 1025417
14:00+7˚se137292 0.0 1025615
17:00+5˚ese2381100 0.0 102578
20:00+3˚ese359365 0.0 1025130
4 december, fri
fri423:00+3˚ese35940 0.0 1025134
02:00+2˚e34952 0.0 1025110
05:00+1˚e35954 0.0 1025139
08:00+1˚e48959 0.0 1025253
11:00+3˚ese579093 0.0 1025512
14:00+4˚ese478597 0.0 1024527
17:00+4˚e5985100 0.0 1024459
20:00+4˚ese5118789 0.0 1025461
5 december, sat
sat523:00+2˚ese5119127 0.0 1025396
02:00+2˚ese5109339 0.0 1025363
05:00+2˚ese5119292 0.0 1025409
08:00+2˚ese6108995 0.0 1026451
11:00+3˚ese5876100 0.0 1027461
14:00+5˚ese586661 0.0 1026484
17:00+2˚ese410740 0.0 1027415
20:00+2˚ese511768 0.0 1028431